Westfield, MA

2:16 AM EDT on May 24, 2017 (GMT -0400)
Barnes Municipal

Weather History for KBAF - May, 2013

Change the Weather History Date:

Sunday, May 26, 2013

  Actual Average Record
Temperature  
Mean Temperature 48 °F -  
Max Temperature 57 °F 68 °F 89 °F (2015)
Min Temperature 42 °F 47 °F 42 °F (2013)
Degree Days  
Heating Degree Days 16    
Moisture  
Dew Point 40 °F    
Average Humidity 71    
Maximum Humidity 92    
Minimum Humidity 57    
Precipitation  
Precipitation 0.02 in - - ()
Sea Level Pressure  
Sea Level Pressure 29.96 in    
Wind  
Wind Speed 11 mph (NW)    
Max Wind Speed 23 mph    
Max Gust Speed 31 mph    
Visibility 10 miles    
Events Rain    
Averages and records for this station are not official NWS values.
T = Trace of Precipitation, MM = Missing Value Source: NWS Daily Summary

Daily Weather History Graph

Daily Weather History Graph

Search for Another Location

Airport or City:

Trip Planner

Search our weather history database for the weather conditions in past years. The results will help you decide how hot, cold, wet, or windy it might be!

Date:

Astronomy

May. 26, 2013 Rise Set
Actual Time 5:20 AM EDT 8:15 PM EDT
Civil Twilight 4:47 AM EDT 8:49 PM EDT
Nautical Twilight 4:05 AM EDT 9:31 PM EDT
Astronomical Twilight 3:16 AM EDT 10:20 PM EDT
Moon 10:00 PM EDT (5/26) 6:46 AM EDT (5/26)
Length of Visible Light 16h 01m
Length of Day
14h 55m
Waning Gibbous, 97% of the Moon is Illuminated
May 26
Waning Gibbous
May 31
Last Quarter
Jun 8
New
Jun 16
First Quarter
Jun 23
Full

Hourly Weather History & Observations

Time (EDT) Temp. Windchill Dew Point Humidity Pressure Visibility Wind Dir Wind Speed Gust Speed Precip Events Conditions
12:53 AM 44.1 °F 37.4 °F 37.0 °F 76% 29.83 in 10.0 mi NW 13.8 mph - N/A   Clear
1:53 AM 44.1 °F 39.0 °F 37.9 °F 79% 29.83 in 10.0 mi NW 9.2 mph - 0.00 in   Overcast
2:53 AM 44.1 °F 39.5 °F 37.9 °F 79% 29.83 in 10.0 mi NW 8.1 mph - 0.00 in   Overcast
3:53 AM 44.1 °F 39.0 °F 37.0 °F 76% 29.82 in 10.0 mi WNW 9.2 mph - N/A   Overcast
4:53 AM 44.1 °F 39.5 °F 37.0 °F 76% 29.83 in 10.0 mi WNW 8.1 mph - N/A   Scattered Clouds
5:53 AM 45.0 °F 41.2 °F 37.9 °F 76% 29.84 in 10.0 mi West 6.9 mph - N/A   Mostly Cloudy
6:53 AM 48.0 °F - 37.9 °F 68% 29.86 in 10.0 mi WNW 10.4 mph - N/A   Overcast
7:53 AM 50.0 °F - 37.9 °F 63% 29.88 in 10.0 mi WNW 17.3 mph 23.0 mph N/A   Overcast
8:53 AM 52.0 °F - 39.0 °F 61% 29.89 in 10.0 mi WNW 9.2 mph - N/A   Overcast
9:53 AM 52.0 °F - 37.9 °F 59% 29.91 in 10.0 mi NW 13.8 mph 25.3 mph N/A   Overcast
10:53 AM 53.1 °F - 37.9 °F 57% 29.92 in 10.0 mi NNW 13.8 mph 26.5 mph N/A   Overcast
11:53 AM 53.1 °F - 39.9 °F 61% 29.94 in 10.0 mi WNW 16.1 mph - N/A   Overcast
12:53 PM 53.1 °F - 43.0 °F 69% 29.95 in 10.0 mi NW 16.1 mph 24.2 mph 0.00 in Rain Light Rain
1:53 PM 55.0 °F - 41.0 °F 59% 29.96 in 10.0 mi NNW 23.0 mph 31.1 mph 0.00 in   Overcast
2:53 PM 53.1 °F - 44.1 °F 71% 29.99 in 10.0 mi NW 17.3 mph 23.0 mph 0.00 in Rain Light Rain
3:53 PM 55.9 °F - 42.1 °F 60% 30.00 in 10.0 mi WNW 20.7 mph 27.6 mph 0.00 in   Overcast
4:53 PM 52.0 °F - 45.0 °F 77% 30.04 in 9.0 mi WNW 12.7 mph 25.3 mph 0.02 in Rain Light Rain
5:53 PM 54.0 °F - 43.0 °F 66% 30.05 in 10.0 mi WNW 11.5 mph 27.6 mph N/A   Overcast
6:53 PM 54.0 °F - 42.1 °F 64% 30.07 in 10.0 mi NNW 12.7 mph 21.9 mph N/A   Scattered Clouds
7:53 PM 53.1 °F - 39.9 °F 61% 30.10 in 10.0 mi NNW 8.1 mph - N/A   Clear
8:53 PM 50.0 °F - 39.9 °F 68% 30.10 in 10.0 mi NNW 3.5 mph - N/A   Partly Cloudy
9:53 PM 45.0 °F - 39.9 °F 82% 30.12 in 10.0 mi Calm Calm - N/A   Clear
10:53 PM 42.1 °F - 39.9 °F 92% 30.13 in 10.0 mi Calm Calm - N/A   Clear
11:53 PM 42.1 °F 40.2 °F 39.9 °F 92% 30.15 in 10.0 mi South 3.5 mph - N/A   Clear